SCP
0 0 0 -0 -0 -0 0 0 0 0 0 0 0 0 0 0 0 0 0 0 0 1 1 1 1 1 1 1 0 0 0 0 0 0 0 0 0 0 0 0 0 0 0 0
0 0 0 -0 -0 0 0 0 0 0 0 0 0 0 0 0 0 0 0 0 0 1 1 1 1 1 1 1 0 0 0 0 0 0 0 0 0 0 0 0 0 0 0 0
0 0 0 0 0 0 0 0 0 0 0 0 0 0 0 0 0 0 0 0 0 0 1 1 1 1 1 0 0 0 0 0 0 0 0 0 0 0 0 0 0 0 0 0
0 0 0 0 0 0 0 0 0 0 0 0 0 0 0 0 0 0 0 0 0 0 0 1 1 0 0 0 0 0 0 0 0 0 0 0 0 0 0 0 0 0 0 0
0 0 0 0 0 0 0 0 0 0 0 0 0 0 0 0 0 0 0 0 0 0 0 0 0 0 0 0 0 0 0 0 0 0 0 0 0 0 0 0 0 0 0 0
0 0 0 0 0 0 0 0 0 0 0 0 0 0 0 0 0 0 0 0 0 0 0 0 0 0 0 0 0 0 0 0 0 0 0 0 0 0 0 0 0 0 0 0
0 0 0 0 0 0 0 0 0 0 0 0 0 0 0 0 0 0 0 0 0 0 0 0 0 0 0 0 0 0 0 0 0 0 0 0 0 0 0 0 0 0 0 0
0 0 0 0 0 0 0 0 0 0 0 0 0 0 0 0 0 0 0 0 0 0 0 0 0 0 0 0 0 0 0 0 0 0 0 0 0 0 0 0 0 0 0 0
0 0 0 0 0 0 0 0 0 0 0 0 0 0 0 0 0 0 0 0 0 0 0 0 0 0 0 0 0 0 0 0 0 0 0 0 0 0 0 0 0 0 0 0
0 0 0 0 0 0 0 0 0 0 0 0 0 0 0 0 0 0 0 0 0 0 0 0 0 0 0 0 0 0 0 0 0 0 0 0 0 0 0 0 0 0 0 0
0 0 0 0 0 0 0 0 0 0 0 0 0 0 0 0 0 0 0 0 0 0 0 0 0 0 0 0 0 0 0 0 0 0 0 0 0 0 0 0 0 0 0 0
0 0 0 0 0 0 0 0 0 0 0 0 0 0 0 0 0 0 0 0 0 0 0 0 0 0 0 0 0 0 0 0 0 0 0 0 0 0 0 0 0 0 0 0
0 0 0 0 0 0 0 0 0 0 0 0 0 0 0 0 0 0 0 0 0 0 0 0 0 0 0 0 0 0 0 0 0 0 0 0 0 0 0 0 0 0 0 0
0 0 0 0 0 0 0 0 0 0 0 0 0 0 0 0 0 0 0 0 0 0 0 0 0 0 0 0 0 0 0 0 0 0 0 0 0 0 0 0 0 0 0 0
0 0 0 0 0 0 0 0 0 0 0 0 0 0 0 0 0 0 0 0 0 0 0 0 0 0 0 0 0 0 0 0 0 0 0 0 0 0 0 0 0 0 0 0
0 0 0 0 0 0 0 0 0 0 0 0 0 0 0 0 0 0 0 0 0 0 0 0 0 0 0 0 0 0 0 0 0 0 0 0 0 0 0 0 0 0 0 0
0 0 0 0 0 0 0 0 0 0 0 0 0 0 0 0 0 0 0 0 0 0 0 0 0 0 0 0 0 0 0 0 0 0 0 0 0 0 0 0 0 0 0 0
0 0 0 0 0 0 0 0 0 0 0 0 0 0 0 0 0 0 0 0 0 0 0 0 0 0 0 0 0 0 0 0 0 0 0 0 0 0 0 0 0 0 0 0
0 0 0 0 0 0 0 0 0 0 0 0 0 0 0 0 0 0 0 0 0 0 0 0 0 0 0 0 0 0 0 0 0 0 0 0 0 0 0 0 0 0 0 0
0 0 0 0 0 0 0 0 0 0 0 0 0 0 0 0 0 0 0 0 0 0 0 0 0 0 0 0 0 0 0 0 0 0 0 0 0 0 0 0 0 0 0 0
0 0 0 0 0 0 0 0 0 0 0 0 0 0 0 0 0 0 0 0 0 0 0 0 0 0 0 0 0 0 0 0 0 0 0 0 0 0 0 0 0 0 0 0
0 0 0 0 0 0 0 0 0 0 0 0 0 0 0 0 0 0 0 0 0 0 0 0 0 0 0 0 0 0 0 0 0 0 0 0 0 0 0 0 0 0 0 0
0 0 0 0 0 0 0 0 0 0 0 0 0 0 0 0 0 0 0 0 0 0 0 0 0 0 0 0 0 0 0 0 0 0 0 0 0 0 0 0 0 0 0 0
0 0 0 0 0 0 0 0 0 0 0 0 0 0 0 0 0 0 0 0 0 0 0 0 0 0 0 0 0 0 0 0 0 0 0 0 0 0 0 0 0 0 0 0
0 0 0 0 0 0 0 0 0 0 0 0 0 0 0 0 0 0 0 0 0 0 0 0 0 0 0 0 0 0 0 0 0 0 0 0 0 0 0 0 0 0 0 0
0 0 0 0 0 0 0 0 0 0 0 0 0 0 0 0 0 0 0 0 0 0 0 0 0 0 0 0 0 0 0 0 0 0 0 0 0 0 0 0 0 0 0 0
Wind_Speed
2 3 3 6 6 4 3 2 5 7 4 1 3 4 5 2 3 3 3 4 4 4 3 2 3 4 5 5 6 6 6 6 5 4 3 3 3 2 2 2 2 3 3 3
4 3 7 4 3 3 3 3 4 5 2 1 2 3 3 1 3 4 4 4 3 3 3 3 3 3 4 5 5 5 6 5 5 4 4 3 3 2 2 1 1 2 3 3
4 6 2 2 2 2 3 4 5 4 2 2 1 3 2 1 1 1 1 2 3 4 5 4 4 4 4 5 5 6 6 6 5 5 3 3 2 2 1 1 1 1 2 2
4 5 2 2 3 3 4 5 4 2 1 3 1 3 5 2 2 2 2 2 2 2 3 4 5 5 5 5 4 4 5 5 5 5 5 6 4 3 3 2 2 1 2 2
5 2 1 3 5 5 5 1 1 1 2 1 1 2 6 1 3 4 3 3 2 3 4 4 5 4 3 4 4 4 4 4 4 5 5 5 4 3 2 2 2 1 0 1
6 3 2 4 3 2 2 4 4 4 4 1 3 2 6 3 5 4 3 3 3 3 2 3 3 3 3 3 3 4 4 3 4 5 5 5 5 4 4 3 2 1 0 0
7 5 3 0 2 3 4 5 4 5 3 5 2 2 7 5 4 4 4 4 3 2 2 2 3 3 3 3 3 4 4 3 3 4 4 4 5 4 4 3 2 1 0 0
3 7 5 2 1 2 1 5 5 3 4 5 2 4 6 3 1 1 2 2 3 2 2 2 3 3 3 3 4 4 4 4 3 3 2 2 3 3 3 3 2 2 1 1
2 6 5 4 1 3 2 1 4 4 1 2 4 5 6 2 2 1 2 2 2 2 2 2 2 2 3 4 4 5 5 4 4 4 3 3 3 3 3 3 2 1 1 1
2 5 6 4 3 4 3 4 4 4 2 3 4 4 4 4 4 1 1 2 2 2 2 1 1 1 2 3 3 4 5 4 4 4 4 3 3 3 3 3 3 2 1 1
1 1 6 4 1 2 2 2 3 2 3 3 3 7 4 5 5 4 3 2 3 3 3 2 1 1 1 2 3 3 4 3 3 3 3 3 3 3 3 2 2 1 1 1
2 1 3 5 4 2 1 2 4 2 2 2 2 8 4 2 2 3 2 2 2 3 2 2 2 2 2 2 3 3 3 3 3 3 3 3 2 2 3 2 1 1 1 1
3 2 4 7 6 5 3 1 1 2 2 2 3 7 3 3 2 0 2 3 2 3 3 2 2 2 2 2 3 3 3 3 2 3 3 3 2 2 2 2 1 1 1 0
1 1 3 4 6 4 5 5 2 3 2 3 6 7 6 4 3 2 2 3 3 4 4 3 2 2 2 2 3 3 3 2 3 3 3 3 2 2 2 1 1 1 1 1
3 1 4 6 7 5 5 7 5 3 5 5 6 6 7 6 4 4 4 4 4 4 3 3 3 3 3 3 2 2 2 2 3 3 3 2 2 1 1 1 1 1 1 1
3 1 3 5 5 3 4 6 6 4 3 3 4 5 5 3 1 1 3 5 5 4 4 3 3 3 3 4 3 3 3 3 3 4 3 2 2 1 1 1 0 0 0 1
3 1 2 4 6 3 3 4 3 2 1 1 3 5 4 3 1 2 4 4 4 4 4 4 4 4 4 4 4 4 3 3 3 3 3 2 2 2 1 1 1 0 1 1
1 1 0 2 4 1 5 2 2 2 3 3 3 4 3 3 2 1 2 4 3 3 3 3 3 3 3 3 3 3 3 3 3 3 2 3 3 2 1 1 1 1 1 1
3 2 1 0 2 5 5 4 3 2 4 4 4 5 5 4 4 2 0 2 3 4 3 3 3 3 3 3 4 4 3 3 3 3 2 2 3 3 2 2 2 1 1 2
3 2 2 0 1 3 4 6 6 1 3 5 4 4 3 3 2 3 1 0 1 1 2 2 2 2 3 3 4 4 3 3 3 3 3 2 3 3 3 3 2 1 1 2
3 2 0 1 2 5 5 7 5 2 5 6 4 4 2 2 3 4 2 1 2 2 1 2 3 3 3 4 5 4 3 4 4 3 2 2 2 3 3 2 1 1 1 2
2 1 1 0 1 5 6 5 2 4 5 4 4 4 3 3 3 2 1 1 3 2 2 3 3 3 2 4 5 4 3 3 2 2 2 2 2 2 2 1 1 1 1 1
2 3 3 4 6 6 5 4 5 4 4 4 3 4 2 2 2 2 0 1 2 3 2 2 4 3 2 3 4 4 3 2 3 2 2 2 1 1 1 1 1 1 1 1
4 2 2 4 7 7 7 6 5 4 4 5 4 4 2 2 1 1 0 1 2 2 2 2 3 3 2 2 2 3 2 3 3 3 2 1 1 1 0 0 1 1 1 2
5 3 3 6 8 8 6 5 5 5 5 5 5 3 2 1 1 1 1 1 2 2 1 2 3 3 2 2 2 2 2 4 4 2 2 1 1 1 1 1 1 2 3 4
4 4 4 7 6 5 9 8 7 6 5 5 4 4 3 1 1 0 1 1 2 2 2 2 2 2 2 2 2 2 3 4 4 2 1 1 1 1 1 1 3 3 4 5
Wind_Direction
58 74 221 225 206 205 210 236 266 267 265 226 234 257 279 251 198 216 213 205 203 195 163 144 141 143 142 146 151 159 160 158 155 153 160 166 177 182 181 181 178 168 165 166
28 276 242 222 205 203 209 242 268 284 278 176 240 277 276 206 209 212 207 214 210 189 149 152 140 141 154 163 166 163 165 166 170 168 163 164 151 169 179 176 170 166 165 174
210 249 233 182 219 213 235 209 233 252 329 34 56 310 294 283 234 197 185 201 193 186 181 180 173 171 171 180 180 173 174 170 169 156 134 120 103 88 126 157 178 203 181 182
250 261 247 243 244 186 258 236 213 218 76 301 60 282 284 252 263 239 216 200 192 187 185 186 181 185 185 183 169 163 167 166 163 156 157 158 166 179 195 188 185 197 183 186
270 264 247 246 244 187 227 257 154 145 137 347 344 203 280 278 245 251 242 216 203 197 190 189 184 184 177 164 156 155 150 157 156 157 167 165 170 179 162 147 148 151 140 166
262 274 229 240 275 182 153 57 51 50 70 309 252 189 273 242 226 231 224 220 211 195 184 175 160 149 148 140 141 142 143 154 157 161 165 166 168 164 153 148 143 131 101 83
324 315 300 230 356 8 68 77 22 357 2 258 273 205 252 253 231 209 213 215 202 171 152 129 133 142 145 138 145 143 150 159 161 159 163 168 164 164 167 161 158 153 162 252
335 310 315 335 195 209 168 135 157 212 239 281 318 244 258 268 253 192 186 164 150 135 125 128 148 155 153 152 155 152 158 159 154 153 168 161 153 160 163 154 152 161 199 245
267 282 305 320 332 133 128 159 168 138 239 285 282 284 302 355 11 39 85 114 142 141 128 129 123 139 154 162 167 166 160 158 159 157 154 145 148 159 161 147 134 142 169 228
210 277 297 307 29 23 124 147 90 110 160 270 291 276 258 263 260 267 155 159 159 128 121 111 105 142 160 157 147 147 149 157 157 148 160 163 159 150 145 142 142 158 175 186
2 265 309 344 5 305 28 60 88 108 160 174 266 273 243 227 218 212 213 189 163 152 149 144 131 133 136 122 131 140 136 132 134 150 157 154 153 144 137 146 161 171 168 178
340 105 294 288 289 302 153 147 136 143 254 196 212 269 300 249 207 191 197 165 149 148 149 145 149 131 127 135 142 147 146 150 159 158 146 152 154 147 151 158 173 155 182 207
335 58 348 339 346 3 18 355 151 138 141 188 208 267 319 352 353 167 174 163 154 148 140 132 134 144 148 149 152 151 149 158 150 141 142 142 150 153 161 166 169 166 169 188
22 140 184 230 259 287 301 304 286 155 182 239 238 259 294 298 282 248 199 177 162 161 162 157 153 159 156 154 161 157 154 149 139 142 149 156 172 175 173 172 173 177 178 186
54 264 255 259 267 267 280 292 297 244 217 222 262 261 273 272 248 220 195 174 165 166 167 175 169 166 159 154 155 149 148 146 143 139 146 168 168 151 146 158 165 174 204 230
17 310 310 295 289 290 297 306 303 289 278 267 287 282 298 313 351 169 182 172 177 181 181 181 172 163 168 170 168 162 167 159 145 142 153 156 143 144 154 168 160 158 298 300
332 352 355 296 313 341 316 309 309 305 312 270 272 286 328 339 297 197 191 180 184 182 179 180 184 182 185 180 173 177 178 153 146 156 162 155 156 168 193 179 140 235 284 300
225 40 123 307 357 284 254 311 333 315 344 8 345 335 336 320 307 264 184 171 171 180 179 189 192 188 182 170 166 164 153 151 157 168 178 171 159 180 193 171 227 261 274 270
176 141 91 32 305 286 315 347 339 316 314 8 2 348 350 7 20 360 53 150 176 183 187 197 193 184 169 166 161 148 150 153 161 179 195 198 174 183 199 211 242 265 271 283
49 88 95 42 287 278 293 330 326 350 310 347 345 330 334 2 358 293 291 163 163 155 155 159 159 148 155 158 141 143 156 162 187 201 208 210 186 189 210 224 245 260 257 272
356 2 30 231 262 275 305 335 2 27 293 316 309 298 296 285 254 268 279 226 168 158 155 147 146 155 171 154 144 154 169 197 209 200 197 204 200 198 208 219 249 260 277 299
273 297 273 215 267 275 335 0 9 264 288 303 297 294 292 299 309 298 239 167 149 140 135 140 144 158 158 152 152 166 196 209 188 177 187 200 203 202 187 179 239 257 257 302
250 222 231 219 237 270 303 291 291 286 298 302 292 292 283 299 307 315 340 145 150 150 151 148 147 147 148 158 163 179 209 175 156 158 179 189 185 181 173 184 231 272 267 281
289 287 260 283 281 292 300 304 312 311 306 307 301 295 274 277 293 328 166 159 145 146 152 142 132 136 157 170 180 196 185 150 145 157 173 174 169 193 192 194 231 246 259 266
259 287 282 276 286 309 313 311 318 328 330 328 323 314 279 244 271 230 180 175 159 142 133 135 142 156 168 167 180 180 152 140 143 154 163 169 174 197 258 284 258 253 253 234
228 222 236 257 265 274 286 297 305 311 312 311 317 326 329 310 240 204 148 170 159 145 137 134 139 149 158 156 167 165 157 150 150 161 178 191 202 223 244 295 319 302 267 275